This demonstration page uses our WeatherBlox Daily Observations layout. Learn more.

39.92423, -83.80882

Hourly Observations for July 10, 2016

Temp ( °F °C ) Dew Point ( °F °C ) Humidity (%) Winds ( mph kmh ) Pressure ( in mb ) Visibility ( mi km ) Precip ( " mm )
12:56 am 00:56 Clear 65 18.3 60 15.5 84 84 WNW 5 7 30.03 1017 10 16.0934 0 0
1:56 am 01:56 Clear 64 17.7 60 15.5 87 87 WNW 5 7 30.03 1017 10 16.0934 0 0
2:56 am 02:56 Clear 61 16.1 60 15.5 96 96 W 3 6 30.02 1017 10 16.0934 0 0
3:56 am 03:56 Clear 61 16.1 60 15.5 96 96 Calm 30.04 1017 10 16.0934 0 0
4:56 am 04:56 Clear 60 15.5 59 15 97 97 NW 3 6 30.04 1017 10 16.0934 0 0
5:56 am 05:56 Clear 59 15 59 15 100 100 W 6 9 30.06 1018 10 16.0934 0 0
6:56 am 06:56 Sunny 60 15.5 60 15.5 100 100 W 3 6 30.07 1018 8 12.87472 0 0
7:56 am 07:56 Sunny 64 17.7 63 17.2 97 97 NNW 5 7 30.07 1018 10 16.0934 0 0
8:56 am 08:56 Sunny 69 20.5 64 17.7 84 84 NE 5 7 30.07 1018 10 16.0934 0 0
9:56 am 09:56 Sunny 74 23.3 63 17.2 69 69 VRB 3 6 30.09 1019 10 16.0934 0 0
10:56 am 10:56 Mostly Sunny 77 25 62 16.6 60 60 SSE 5 7 30.09 1019 10 16.0934 0 0
11:56 am 11:56 Partly Cloudy 79 26.1 62 16.6 56 56 SW 7 11 30.08 1019 10 16.0934 0 0
12:56 pm 12:56 Sunny 80 26.6 61 16.1 53 53 VRB 3 6 30.07 1018 10 16.0934 0 0
1:56 pm 13:56 Mostly Sunny 82 27.7 62 16.6 51 51 VRB 3 6 30.08 1019 10 16.0934 0 0
2:56 pm 14:56 Mostly Cloudy 82 27.7 62 16.6 51 51 VRB 5 7 30.08 1019 10 16.0934 0 0
3:56 pm 15:56 Sunny 85 29.4 61 16.1 45 45 SW 8 13 30.06 1018 10 16.0934 0 0
4:56 pm 16:56 Sunny 85 29.4 61 16.1 45 45 VRB 3 6 30.04 1017 10 16.0934 0 0
5:56 pm 17:56 Partly Cloudy 85 29.4 61 16.1 45 45 SE 7 11 30.04 1017 10 16.0934 0 0
6:56 pm 18:56 Mostly Sunny 84 28.8 61 16.1 46 46 S 5 7 30.02 1017 10 16.0934 0 0
7:56 pm 19:56 Sunny 83 28.3 62 16.6 49 49 S 3 6 30.03 1017 10 16.0934 0 0
8:56 pm 20:56 Sunny 78 25.5 63 17.2 60 60 Calm 30.04 1017 10 16.0934 0 0
9:56 pm 21:56 Clear 71 21.6 64 17.7 79 79 S 5 7 30.04 1017 10 16.0934 0 0
10:56 pm 22:56 Clear 68 20 63 17.2 84 84 S 3 6 30.05 1018 10 16.0934 0 0
11:56 pm 23:56 Clear 70 21.1 61 16.1 73 73 SSE 6 9 30.05 1018 10 16.0934 0 0

Powered by AerisWeather